Home > Weather > Rhodes > Past weeks

Flag for Greece Past Weather in Rhodes, Rhodes, Greece — Yesterday and Last 2 Weeks

Now
75 °F

Clear.


Feels Like: 75 °F
Forecast: 77 / 87 °F
Wind: 13 mph from Southwest

Location: Rhodes Airport

Current Time: Jul 26, 2016 at 7:37:44 AM

Latest Report: Jul 26, 2016 at 6:50 AM


Visibility: 10 mi

Pressure: 29.68 "Hg

Humidity: 83%

Dew Point: 70 °F

Location of RhodesLocation

Past Weather in Rhodes — Graph

°F

Rhodes Temperature Yesterday

Maximum temperature yesterday: 90 °F (at 5:50 PM)
Minimum temperature yesterday: 75 °F (at 4:50 AM)
Average temperature yesterday: 82 °F

High & Low Weather Summary for the Past Weeks

 TemperatureHumidityPressure
High91 °F (Jul 20, 11:50 AM)89% (Jul 13, 5:50 AM)29.86 "Hg (Jul 13, 5:50 AM)
Low73 °F (Jul 12, 5:50 AM)30% (Jul 24, 5:50 PM)29.56 "Hg (Jul 19, 3:50 AM)
Average81 °F64%29.71 "Hg
* Reported Jul 11 6:20 AM — Jul 26 6:20 AM, Rhodes, Weather by CustomWeather, © 2016

Note: Actual official high and low records may vary slightly from our data, if they occured in-between our weather recording intervals... More about our weather records

Advertising

Rhodes Weather History for the Previous 24 Hours

Scroll right to see more
 ConditionsComfort  
Time TempWeatherWind HumidityBarometerVisibility
6:20 AM
Tue, Jul 26
75 °FClear.12 mph83%29.65 "Hg10 mi
5:50 AM75 °FClear.13 mph83%29.65 "Hg10 mi
5:20 AM77 °FClear.14 mph79%29.65 "Hg10 mi
4:50 AM77 °FClear.12 mph79%29.65 "Hg10 mi
4:20 AM77 °FClear.14 mph79%29.65 "Hg10 mi
3:50 AM77 °FClear.14 mph79%29.68 "Hg10 mi
3:20 AM77 °FClear.13 mph79%29.68 "Hg10 mi
2:50 AM77 °FClear.13 mph79%29.68 "Hg10 mi
2:20 AM77 °FClear.13 mph79%29.68 "Hg10 mi
1:50 AM77 °FClear.12 mph79%29.68 "Hg10 mi
1:20 AM79 °FClear.13 mph74%29.68 "Hg10 mi
12:50 AM79 °FClear.14 mph74%29.68 "Hg10 mi
12:20 AM79 °FClear.12 mph74%29.68 "Hg10 mi
11:50 PM
Mon, Jul 25
79 °FClear.12 mph74%29.68 "Hg10 mi
11:20 PM79 °FClear.10 mph65%29.68 "Hg10 mi
10:50 PM79 °FClear.10 mph65%29.68 "Hg10 mi
10:20 PM79 °FClear.10 mph74%29.68 "Hg10 mi
9:50 PM79 °FClear.12 mph74%29.68 "Hg10 mi
9:20 PM79 °FClear.12 mph74%29.68 "Hg10 mi
8:50 PM82 °FSunny.13 mph58%29.68 "Hg10 mi
8:20 PM82 °FSunny.16 mph58%29.65 "Hg10 mi
7:50 PM86 °FSunny.16 mph52%29.65 "Hg10 mi
7:20 PM86 °FSunny.16 mph52%29.65 "Hg10 mi
6:50 PM88 °FSunny.16 mph46%29.65 "Hg10 mi
6:20 PM90 °FSunny.16 mph43%29.65 "Hg10 mi
5:50 PM90 °FSunny.15 mph43%29.65 "Hg10 mi
5:20 PM88 °FSunny.17 mph55%29.65 "Hg10 mi
4:50 PM88 °FSunny.17 mph55%29.65 "Hg10 mi
4:20 PM88 °FSunny.15 mph55%29.65 "Hg10 mi
3:50 PM88 °FSunny.15 mph55%29.65 "Hg10 mi
3:20 PM88 °FSunny.15 mph55%29.65 "Hg10 mi
2:50 PM88 °FSunny.14 mph55%29.65 "Hg10 mi
2:20 PM88 °FSunny.13 mph52%29.65 "Hg10 mi
1:50 PM88 °FSunny.13 mph52%29.65 "Hg10 mi
1:20 PM86 °FSunny.10 mph55%29.65 "Hg10 mi
12:50 PM86 °FSunny.10 mph55%29.65 "Hg10 mi
12:20 PM86 °FSunny.10 mph55%29.65 "Hg10 mi
11:50 AM86 °FSunny.10 mph55%29.65 "Hg10 mi
11:20 AM84 °FSunny.12 mph62%29.65 "Hg10 mi
10:50 AM84 °FSunny.9 mph62%29.65 "Hg10 mi
10:20 AM84 °FSunny.10 mph62%29.65 "Hg10 mi
9:50 AM84 °FSunny.9 mph62%29.65 "Hg10 mi
9:20 AM82 °FSunny.9 mph62%29.65 "Hg10 mi
8:50 AM82 °FSunny.7 mph62%29.65 "Hg10 mi
8:20 AM79 °FSunny.7 mph51%29.65 "Hg10 mi
7:50 AM79 °FSunny.5 mph51%29.62 "Hg10 mi
7:20 AM75 °FSunny.No wind61%29.62 "Hg10 mi
Weather by CustomWeather, © 2016

See weather overviewHow to use our weather pages